AB5KT-1 Weather Reports


Display with metric or nautical units.
time (UTC)temp
F
wind
direction
speed
MPH
gust
MPH
rain 1hr
in
rain 24hr
in
rain mn
in
humidity
%
barometer
mb
20260831060624 81 119 3.0 8.0 0.00 0.00 0.00 75 1016.5
20260831060124 81 102 3.0 8.0 0.00 0.00 0.00 74 1016.6
20260831055624 81 119 4.0 8.0 0.00 0.00 0.00 74 1016.5
20260831055128 81 119 3.0 11.0 0.00 0.00 0.00 73 1016.4
20260831055124 81 202 4.0 8.0 0.00 0.00 0.00 74 1016.5
20260831054121 81 111 2.0 11.0 0.00 0.00 0.00 73 1016.5
20260831053622 82 130 2.0 10.0 0.00 0.00 0.00 72 1016.5
20260831053618 82 114 3.0 10.0 0.00 0.00 0.00 72 1016.3
20260831052617 82 108 4.0 10.0 0.00 0.00 0.00 72 1016.3
20260831052118 82 110 3.0 10.0 0.00 0.00 0.00 71 1016.2
20260831051622 82 108 4.0 11.0 0.00 0.00 0.00 70 1016.2
20260831051618 82 119 3.0 9.0 0.00 0.00 0.00 71 1016.2
20260831050616 83 117 4.0 11.0 0.00 0.00 0.00 70 1016.2
20260831050120 83 100 4.0 10.0 0.00 0.00 0.00 69 1016.1
20260831050116 83 90 4.0 9.0 0.00 0.00 0.00 69 1016.1
20260831045113 83 128 3.0 10.0 0.00 0.00 0.00 68 1016.2
20260831044617 84 117 3.0 9.0 0.00 0.00 0.00 68 1015.9
20260831044613 83 110 3.0 9.0 0.00 0.00 0.00 68 1016.0
20260831043613 84 114 3.0 9.0 0.00 0.00 0.00 67 1016.0
20260831043111 84 153 4.0 9.0 0.00 0.00 0.00 67 1015.8
20260831042609 84 67 4.0 10.0 0.00 0.00 0.00 66 1015.9
20260831042110 84 140 3.0 10.0 0.00 0.00 0.00 66 1015.9
20260831041611 85 110 4.0 10.0 0.00 0.00 0.00 66 1015.8
20260831041607 85 136 5.0 10.0 0.00 0.00 0.00 65 1015.8
20260831040605 85 74 4.0 10.0 0.00 0.00 0.00 65 1015.7
20260831040105 85 98 4.0 10.0 0.00 0.00 0.00 64 1015.6
20260831035603 85 112 3.0 10.0 0.00 0.00 0.00 63 1015.6
20260831035102 86 144 3.0 9.0 0.00 0.00 0.00 62 1015.5
20260831034601 86 141 3.0 8.0 0.00 0.00 0.00 61 1015.5
20260831034106 86 105 3.0 9.0 0.00 0.00 0.00 60 1015.5
20260831034102 86 149 3.0 7.0 0.00 0.00 0.00 60 1015.5
20260831033103 87 102 4.0 10.0 0.00 0.00 0.00 59 1015.4
20260831033059 87 84 4.0 10.0 0.00 0.00 0.00 59 1015.5
20260831032059 87 132 4.0 10.0 0.00 0.00 0.00 59 1015.2
20260831031603 87 107 4.0 12.0 0.00 0.00 0.00 58 1015.1
20260831031559 87 107 4.0 12.0 0.00 0.00 0.00 58 1015.2
20260831030559 87 117 4.0 8.0 0.00 0.00 0.00 58 1015.0
20260831030057 88 132 4.0 9.0 0.00 0.00 0.00 58 1015.0
20260831025702 89 119 5.0 10.0 0.00 0.00 0.00 58 1014.8
20260831025057 88 144 4.0 9.0 0.00 0.00 0.00 58 1014.9
20260831024101 89 127 4.0 9.0 0.00 0.00 0.00 57 1014.6
20260831024057 89 111 4.0 10.0 0.00 0.00 0.00 57 1014.7
20260831023057 89 98 3.0 8.0 0.00 0.00 0.00 57 1014.5
20260831022557 89 168 3.0 8.0 0.00 0.00 0.00 57 1014.4
20260831022057 89 130 4.0 10.0 0.00 0.00 0.00 56 1014.2
20260831021557 90 145 4.0 10.0 0.00 0.00 0.00 56 1014.1
20260831021057 90 128 3.0 9.0 0.00 0.00 0.00 55 1013.9
20260831020557 90 83 2.0 8.0 0.00 0.00 0.00 55 1013.8
20260831020057 90 127 2.0 8.0 0.00 0.00 0.00 55 1013.7
20260831015055 90 111 3.0 9.0 0.00 0.00 0.00 54 1013.7
20260831014555 91 141 2.0 8.0 0.00 0.00 0.00 54 1013.6
20260831014055 91 144 2.0 8.0 0.00 0.00 0.00 53 1013.5
20260831013556 91 115 3.0 8.0 0.00 0.00 0.00 53 1013.5
20260831013055 92 134 3.0 8.0 0.00 0.00 0.00 52 1013.5
20260831012555 92 107 2.0 9.0 0.00 0.00 0.00 51 1013.3
20260831012054 93 159 2.0 9.0 0.00 0.00 0.00 48 1013.4
20260831011558 94 132 1.0 4.0 0.00 0.00 0.00 44 1013.3
20260831011553 93 132 2.0 7.0 0.00 0.00 0.00 46 1013.4
20260831010554 94 122 0.0 4.0 0.00 0.00 0.00 43 1013.2
20260831010057 95 126 0.0 1.0 0.00 0.00 0.00 41 1013.2
20260831010053 95 126 0.0 1.0 0.00 0.00 0.00 42 1013.1
20260831005054 96 126 0.0 2.0 0.00 0.00 0.00 41 1013.1
20260831004553 96 126 0.0 2.0 0.00 0.00 0.00 40 1013.1
20260831004053 97 126 0.0 2.0 0.00 0.00 0.00 40 1013.1
20260831003553 97 126 0.0 2.0 0.00 0.00 0.00 39 1013.0
20260831003055 98 128 1.0 6.0 0.00 0.00 0.00 39 1012.9
20260831003051 97 123 1.0 2.0 0.00 0.00 0.00 39 1013.0
20260831002051 97 124 1.0 6.0 0.00 0.00 0.00 39 1013.0
20260831001549 98 120 1.0 5.0 0.00 0.00 0.00 39 1013.0
20260831001053 98 135 2.0 7.0 0.00 0.00 0.00 39 1013.0
20260831001049 98 136 1.0 7.0 0.00 0.00 0.00 39 1013.0
20260831000654 98 126 2.0 8.0 0.00 0.00 0.00 39 1013.0
20260830235549 98 130 3.0 9.0 0.00 0.00 0.00 39 1013.0
20260830235049 98 131 3.0 9.0 0.00 0.00 0.00 39 1013.0
20260830234549 99 132 2.0 6.0 0.00 0.00 0.00 39 1013.0
20260830234050 99 149 2.0 7.0 0.00 0.00 0.00 39 1013.0
20260830233549 99 128 3.0 8.0 0.00 0.00 0.00 38 1013.0
20260830233048 99 138 3.0 8.0 0.00 0.00 0.00 38 1013.0
20260830232550 99 121 3.0 7.0 0.00 0.00 0.00 38 1013.0
20260830232546 99 146 3.0 9.0 0.00 0.00 0.00 38 1013.0
20260830231549 100 94 4.0 9.0 0.00 0.00 0.00 38 1013.0
20260830231545 100 90 3.0 9.0 0.00 0.00 0.00 38 1013.1
20260830230545 100 132 3.0 9.0 0.00 0.00 0.00 38 1013.0
20260830230045 100 107 2.0 7.0 0.00 0.00 0.00 38 1013.0
20260830225546 100 103 2.0 6.0 0.00 0.00 0.00 37 1013.0
20260830225045 100 132 2.0 7.0 0.00 0.00 0.00 38 1013.1
20260830224543 100 136 3.0 8.0 0.00 0.00 0.00 38 1013.2
20260830224044 100 190 3.0 8.0 0.00 0.00 0.00 37 1013.2
20260830223542 100 109 2.0 7.0 0.00 0.00 0.00 39 1013.2
20260830223041 99 157 3.0 7.0 0.00 0.00 0.00 39 1013.3
20260830222541 99 184 3.0 7.0 0.00 0.00 0.00 39 1013.3
20260830222040 98 119 3.0 8.0 0.00 0.00 0.00 39 1013.4
20260830221539 98 149 3.0 8.0 0.00 0.00 0.00 41 1013.4
20260830221041 97 61 2.0 6.0 0.00 0.00 0.00 41 1013.3
20260830221037 97 72 2.0 7.0 0.00 0.00 0.00 42 1013.3
20260830220143 96 146 2.0 7.0 0.00 0.00 0.00 43 1013.5
20260830220041 97 133 2.0 7.0 0.00 0.00 0.00 42 1013.4
20260830220037 97 96 2.0 6.0 0.00 0.00 0.00 43 1013.4
20260830214538 96 62 2.0 5.0 0.00 0.00 0.00 43 1013.5
20260830214037 97 167 3.0 11.0 0.00 0.00 0.00 43 1013.6
20260830213537 97 117 4.0 11.0 0.00 0.00 0.00 41 1013.7
20260830213041 99 166 3.0 9.0 0.00 0.00 0.00 41 1013.6
20260830213037 99 126 3.0 9.0 0.00 0.00 0.00 41 1013.7
20260830212036 99 125 3.0 9.0 0.00 0.00 0.00 41 1013.8
20260830211539 99 110 3.0 8.0 0.00 0.00 0.00 42 1014.0
20260830211535 99 106 3.0 9.0 0.00 0.00 0.00 40 1013.9
20260830210542 100 164 2.0 14.0 0.00 0.00 0.00 41 1014.1
20260830210538 99 109 3.0 14.0 0.00 0.00 0.00 40 1014.0
20260830205536 99 127 3.0 9.0 0.00 0.00 0.00 41 1014.2
20260830205036 99 125 3.0 9.0 0.00 0.00 0.00 41 1014.3
20260830204535 98 101 2.0 7.0 0.00 0.00 0.00 42 1014.4
20260830204036 98 147 3.0 9.0 0.00 0.00 0.00 41 1014.4
20260830203535 98 158 3.0 9.0 0.00 0.00 0.00 42 1014.6
20260830203035 99 132 2.0 6.0 0.00 0.00 0.00 41 1014.7
20260830202536 98 88 2.0 6.0 0.00 0.00 0.00 42 1014.7
20260830202035 98 119 2.0 9.0 0.00 0.00 0.00 41 1014.8
20260830201535 98 142 3.0 9.0 0.00 0.00 0.00 42 1014.9
20260830201036 98 119 4.0 9.0 0.00 0.00 0.00 43 1015.0
20260830200536 97 117 3.0 9.0 0.00 0.00 0.00 43 1015.1
20260830200039 97 82 3.0 11.0 0.00 0.00 0.00 43 1015.4
20260830200035 97 171 4.0 9.0 0.00 0.00 0.00 43 1015.1
20260830195640 97 160 2.0 11.0 0.00 0.00 0.00 43 1015.5
20260830194536 97 117 4.0 10.0 0.00 0.00 0.00 43 1015.6
20260830194035 98 98 5.0 12.0 0.00 0.00 0.00 42 1015.7
20260830193536 97 107 3.0 12.0 0.00 0.00 0.00 44 1015.7
20260830193036 97 120 2.0 11.0 0.00 0.00 0.00 44 1015.8
20260830192535 97 74 3.0 11.0 0.00 0.00 0.00 44 1015.9
20260830192035 96 94 3.0 9.0 0.00 0.00 0.00 47 1015.9
20260830191536 96 128 4.0 12.0 0.00 0.00 0.00 44 1016.0
20260830191035 95 110 5.0 12.0 0.00 0.00 0.00 46 1016.0
20260830190540 96 126 3.0 12.0 0.00 0.00 0.00 45 1016.2
20260830190536 96 167 4.0 12.0 0.00 0.00 0.00 44 1016.1
20260830185535 96 70 2.0 10.0 0.00 0.00 0.00 45 1016.3
20260830185035 95 88 3.0 13.0 0.00 0.00 0.00 48 1016.4
20260830184536 95 161 4.0 13.0 0.00 0.00 0.00 47 1016.5
20260830184035 95 131 3.0 9.0 0.00 0.00 0.00 47 1016.6
20260830183536 94 90 2.0 9.0 0.00 0.00 0.00 48 1016.7
20260830183036 93 145 2.0 6.0 0.00 0.00 0.00 50 1016.7
20260830182535 93 147 3.0 10.0 0.00 0.00 0.00 51 1016.8
20260830182035 92 188 4.0 10.0 0.00 0.00 0.00 51 1016.9
20260830181536 93 153 5.0 9.0 0.00 0.00 0.00 49 1017.1
20260830181035 93 163 4.0 11.0 0.00 0.00 0.00 50 1017.0
20260830180536 93 182 4.0 11.0 0.00 0.00 0.00 49 1017.2
20260830180036 94 131 3.0 9.0 0.00 0.00 0.00 50 1017.3
20260830175535 94 97 3.0 9.0 0.00 0.00 0.00 49 1017.4
20260830175142 92 59 3.0 8.0 0.00 0.00 0.00 52 1017.5
20260830175040 92 152 3.0 9.0 0.00 0.00 0.00 52 1017.4
20260830175036 93 104 2.0 9.0 0.00 0.00 0.00 51 1017.4
20260830174745 91 192 4.0 9.0 0.00 0.00 0.00 56 1017.4
20260830173036 91 180 4.0 9.0 0.00 0.00 0.00 55 1017.5
20260830172540 91 155 3.0 8.0 0.00 0.00 0.00 56 1017.6
20260830172535 91 158 4.0 8.0 0.00 0.00 0.00 53 1017.5
20260830172140 90 119 2.0 6.0 0.00 0.00 0.00 60 1017.7
20260830171638 91 146 3.0 8.0 0.00 0.00 0.00 54 1017.7
20260830170531 90 237 2.0 6.0 0.00 0.00 0.00 61 1017.8
20260830170029 89 128 1.0 4.0 0.00 0.00 0.00 63 1017.8
20260830165530 89 200 3.0 8.0 0.00 0.00 0.00 62 1017.8
20260830165028 89 128 3.0 8.0 0.00 0.00 0.00 60 1017.9
20260830164525 89 111 2.0 7.0 0.00 0.00 0.00 60 1018.0
20260830164026 89 127 1.0 6.0 0.00 0.00 0.00 63 1017.9
20260830163526 89 138 1.0 5.0 0.00 0.00 0.00 64 1017.9
20260830163023 88 117 2.0 7.0 0.00 0.00 0.00 65 1018.0
20260830162523 87 163 2.0 8.0 0.00 0.00 0.00 66 1017.9
20260830162024 87 130 2.0 8.0 0.00 0.00 0.00 67 1017.9
20260830161524 87 153 2.0 7.0 0.00 0.00 0.00 68 1017.9
20260830161023 87 190 2.0 7.0 0.00 0.00 0.00 68 1017.8
20260830160521 86 165 2.0 7.0 0.00 0.00 0.00 68 1017.9
20260830160022 86 142 3.0 8.0 0.00 0.00 0.00 68 1018.0
20260830155526 86 155 3.0 8.0 0.00 0.00 0.00 66 1018.0
20260830155522 86 161 4.0 8.0 0.00 0.00 0.00 68 1018.0
20260830155126 86 135 3.0 7.0 0.00 0.00 0.00 67 1018.0
20260830154021 86 182 4.0 8.0 0.00 0.00 0.00 69 1018.1
20260830153522 86 190 4.0 9.0 0.00 0.00 0.00 69 1018.1
20260830153022 85 134 4.0 9.0 0.00 0.00 0.00 71 1018.0
20260830152519 85 146 4.0 8.0 0.00 0.00 0.00 71 1018.0
20260830152019 85 144 4.0 7.0 0.00 0.00 0.00 71 1018.0
20260830151520 85 108 3.0 7.0 0.00 0.00 0.00 74 1017.9
20260830151019 84 181 2.0 6.0 0.00 0.00 0.00 74 1018.1
20260830150521 82 107 3.0 9.0 0.00 0.00 0.00 78 1018.1
20260830150517 83 161 2.0 6.0 0.00 0.00 0.00 77 1018.1
20260830145518 81 164 4.0 9.0 0.00 0.00 0.00 79 1018.1
20260830145017 81 225 3.0 8.0 0.00 0.00 0.00 79 1018.1
20260830144515 81 167 2.0 7.0 0.00 0.00 0.00 79 1018.1
20260830144014 81 137 3.0 6.0 0.00 0.00 0.00 80 1018.1
20260830143517 80 145 2.0 7.0 0.00 0.00 0.00 81 1018.1
20260830143513 81 141 3.0 7.0 0.00 0.00 0.00 80 1018.1
20260830142512 80 122 2.0 7.0 0.00 0.00 0.00 81 1018.0
20260830142011 80 195 3.0 10.0 0.00 0.00 0.00 82 1018.0
20260830141510 79 167 3.0 10.0 0.00 0.00 0.00 82 1018.0
20260830141008 79 202 2.0 7.0 0.00 0.00 0.00 82 1018.0
20260830140506 79 161 2.0 4.0 0.00 0.00 0.00 83 1018.0
20260830140005 79 132 2.0 5.0 0.00 0.00 0.00 84 1018.0
20260830135506 79 161 2.0 9.0 0.00 0.00 0.00 84 1017.9
20260830135006 78 130 2.0 9.0 0.00 0.00 0.00 85 1018.0
20260830134503 78 178 2.0 6.0 0.00 0.00 0.00 85 1017.9
20260830134005 78 159 2.0 6.0 0.00 0.00 0.00 85 1017.9
20260830134001 78 205 2.0 5.0 0.00 0.00 0.00 85 1017.9
20260830133000 78 155 2.0 6.0 0.00 0.00 0.00 86 1017.8
20260830132500 77 163 2.0 7.0 0.00 0.00 0.00 86 1017.8
20260830132002 77 132 3.0 7.0 0.00 0.00 0.00 86 1017.6
20260830131957 77 161 2.0 7.0 0.00 0.00 0.00 86 1017.7
20260830131602 77 158 2.0 7.0 0.00 0.00 0.00 86 1017.6
20260830130502 77 127 1.0 5.0 0.00 0.00 0.00 86 1017.5
20260830130457 77 161 1.0 5.0 0.00 0.00 0.00 86 1017.6
20260830125458 77 152 0.0 2.0 0.00 0.00 0.00 86 1017.4
20260830125000 76 156 1.0 6.0 0.00 0.00 0.00 87 1017.3
20260830124955 76 160 0.0 2.0 0.00 0.00 0.00 87 1017.4
20260830123956 76 157 1.0 6.0 0.00 0.00 0.00 87 1017.3
20260830123457 76 131 1.0 5.0 0.00 0.00 0.00 86 1017.3
20260830123453 76 121 0.0 4.0 0.00 0.00 0.00 87 1017.3
20260830122452 76 115 0.0 4.0 0.00 0.00 0.00 86 1017.2
20260830121952 76 152 0.0 4.0 0.00 0.00 0.00 86 1017.2
20260830121454 76 170 1.0 2.0 0.00 0.00 0.00 86 1017.2
20260830120952 76 130 1.0 6.0 0.00 0.00 0.00 86 1017.2
20260830120452 76 148 1.0 6.0 0.00 0.00 0.00 86 1017.2
20260830115955 76 159 0.0 4.0 0.00 0.00 0.00 86 1017.2
20260830115951 76 163 1.0 4.0 0.00 0.00 0.00 86 1017.2
20260830114950 76 171 1.0 2.0 0.00 0.00 0.00 86 1017.2
20260830114454 76 156 0.0 2.0 0.00 0.00 0.00 86 1017.2
20260830114450 76 150 0.0 2.0 0.00 0.00 0.00 86 1017.1
20260830113450 76 157 1.0 2.0 0.00 0.00 0.00 86 1017.2
20260830112950 76 132 1.0 4.0 0.00 0.00 0.00 86 1017.1
20260830112449 76 158 0.0 4.0 0.00 0.00 0.00 86 1017.2
20260830111954 76 161 0.0 2.0 0.00 0.00 0.00 86 1017.1
20260830111950 76 161 0.0 2.0 0.00 0.00 0.00 86 1017.1
20260830110949 76 163 1.0 4.0 0.00 0.00 0.00 86 1017.1
20260830110448 76 163 1.0 5.0 0.00 0.00 0.00 86 1017.1
20260830105948 76 136 1.0 5.0 0.00 0.00 0.00 85 1017.1
20260830105448 76 133 1.0 4.0 0.00 0.00 0.00 85 1017.1
20260830104948 76 152 1.0 2.0 0.00 0.00 0.00 85 1017.1
20260830104448 77 146 1.0 4.0 0.00 0.00 0.00 85 1017.1
20260830103948 77 103 1.0 4.0 0.00 0.00 0.00 85 1017.1
20260830103448 77 163 1.0 5.0 0.00 0.00 0.00 85 1017.0
20260830102948 77 139 2.0 5.0 0.00 0.00 0.00 85 1017.0
20260830102449 77 145 2.0 5.0 0.00 0.00 0.00 85 1017.0
20260830101948 77 126 2.0 7.0 0.00 0.00 0.00 85 1017.0
20260830101446 77 159 2.0 7.0 0.00 0.00 0.00 84 1017.1
20260830100950 77 171 2.0 9.0 0.00 0.00 0.00 84 1017.1
20260830100946 77 133 2.0 5.0 0.00 0.00 0.00 84 1017.1
20260830100551 77 162 2.0 9.0 0.00 0.00 0.00 84 1017.1
20260830095446 77 144 1.0 5.0 0.00 0.00 0.00 84 1017.0
20260830094950 76 161 1.0 4.0 0.00 0.00 0.00 84 1017.1
20260830094946 77 109 1.0 5.0 0.00 0.00 0.00 84 1017.1
20260830093946 76 165 1.0 4.0 0.00 0.00 0.00 84 1017.1
20260830093446 76 157 1.0 4.0 0.00 0.00 0.00 84 1017.1
20260830092946 76 128 1.0 2.0 0.00 0.00 0.00 84 1017.1
20260830092444 76 128 1.0 5.0 0.00 0.00 0.00 83 1017.2
20260830091944 76 128 1.0 5.0 0.00 0.00 0.00 83 1017.1
20260830091444 76 126 0.0 4.0 0.00 0.00 0.00 83 1017.1
20260830090943 76 151 0.0 2.0 0.00 0.00 0.00 83 1017.1
20260830090448 76 120 0.0 2.0 0.00 0.00 0.00 83 1017.0
20260830090444 76 120 0.0 2.0 0.00 0.00 0.00 83 1017.1
20260830085447 76 120 0.0 4.0 0.00 0.00 0.00 82 1017.1
20260830085443 76 120 0.0 4.0 0.00 0.00 0.00 82 1017.1
20260830084444 76 130 0.0 2.0 0.00 0.00 0.00 82 1017.1
20260830083943 76 130 0.0 2.0 0.00 0.00 0.00 82 1017.0
20260830083442 76 130 0.0 2.0 0.00 0.00 0.00 82 1017.0
20260830082942 76 131 0.0 1.0 0.00 0.00 0.00 81 1017.0
20260830082442 76 131 0.0 1.0 0.00 0.00 0.00 81 1017.0
20260830081942 77 131 0.0 2.0 0.00 0.00 0.00 81 1017.1
20260830081442 77 131 0.0 2.0 0.00 0.00 0.00 81 1017.2
20260830080942 77 148 0.0 2.0 0.00 0.00 0.00 80 1017.2
20260830080442 77 111 0.0 2.0 0.00 0.00 0.00 80 1017.2
20260830075942 77 111 0.0 2.0 0.00 0.00 0.00 80 1017.3
20260830075442 77 258 0.0 1.0 0.00 0.00 0.00 80 1017.2
20260830074941 77 126 0.0 1.0 0.00 0.00 0.00 79 1017.2
20260830074440 77 126 0.0 1.0 0.00 0.00 0.00 79 1017.3
20260830073940 78 126 0.0 4.0 0.00 0.00 0.00 79 1017.3
20260830073439 78 126 0.0 4.0 0.00 0.00 0.00 78 1017.3
20260830072940 78 126 1.0 4.0 0.00 0.00 0.00 78 1017.3
20260830072444 78 123 1.0 5.0 0.00 0.00 0.00 78 1017.3
20260830072440 78 126 1.0 4.0 0.00 0.00 0.00 78 1017.3
20260830071440 78 123 0.0 5.0 0.00 0.00 0.00 77 1017.2
20260830070940 78 126 1.0 4.0 0.00 0.00 0.00 77 1017.2
20260830070444 78 121 1.0 6.0 0.00 0.00 0.00 76 1017.2
20260830070440 78 126 1.0 6.0 0.00 0.00 0.00 77 1017.3
20260830065440 78 123 1.0 6.0 0.00 0.00 0.00 76 1017.3
20260830064940 79 156 1.0 4.0 0.00 0.00 0.00 76 1017.2
20260830064438 79 159 0.0 4.0 0.00 0.00 0.00 75 1017.3
20260830063938 79 127 1.0 5.0 0.00 0.00 0.00 75 1017.3
20260830063438 79 105 1.0 6.0 0.00 0.00 0.00 74 1017.2
20260830062942 79 139 1.0 5.0 0.00 0.00 0.00 73 1017.2
20260830062938 79 118 1.0 6.0 0.00 0.00 0.00 74 1017.3
20260830061938 80 113 1.0 4.0 0.00 0.00 0.00 73 1017.3
20260830061438 80 155 1.0 5.0 0.00 0.00 0.00 72 1017.2